Location: Tamazert
(32.6352°N, 5.2072°W)
Time: 01:32:40
(UTC+00:00)

Altair - Pass Details

Date: 08 October 2022
Orbit: 1501 x 1682 km, 47.2° (Epoch: 05 December)

Event Time Altitude Azimuth Distance (km) Brightness Sun altitude
Exits shadow 02:34:44 44° 84° (E) 2,079 8.2 -46.7°
Drops below altitude 10° 02:41:23 10° 59° (ENE) 3,853 10.2 -45.5°
Sets 02:44:37 0° 55° (NE) 4,864 10.9 -44.9°
